KS5S Weather Reports


Display with metric or nautical units.
time (UTC)temp
F
wind
direction
speed
MPH
gust
MPH
rain 1hr
in
rain 24hr
in
rain mn
in
humidity
%
barometer
mb
20260904222642 98 184 7.0 7.0 0.00 0.18 0.18 44 1009.3
20260904222137 97 133 4.0 7.0 0.00 0.18 0.18 44 1009.2
20260904221636 99 166 7.0 13.0 0.00 0.18 0.18 42 1009.2
20260904221131 99 178 7.0 16.0 0.00 0.18 0.18 43 1009.1
20260904220626 99 202 3.0 8.0 0.00 0.18 0.18 42 1009.3
20260904220121 99 187 7.0 12.0 0.00 0.18 0.18 44 1009.2
20260904215616 99 185 2.0 11.0 0.00 0.18 0.18 43 1009.3
20260904215112 99 172 5.0 14.0 0.00 0.18 0.18 43 1009.3
20260904214607 98 188 3.0 16.0 0.00 0.18 0.18 44 1009.4
20260904214103 98 154 4.0 11.0 0.00 0.18 0.18 44 1009.5
20260904213600 100 206 7.0 10.0 0.00 0.18 0.18 40 1009.4
20260904213057 100 180 4.0 13.0 0.00 0.18 0.18 39 1009.4
20260904212556 100 246 0.0 5.0 0.00 0.18 0.18 39 1009.4
20260904212052 100 143 5.0 13.0 0.00 0.18 0.18 39 1009.4
20260904211551 100 179 4.0 13.0 0.00 0.18 0.18 39 1009.6
20260904211047 100 161 5.0 10.0 0.00 0.18 0.18 40 1009.7
20260904210546 100 181 4.0 11.0 0.00 0.18 0.18 41 1009.7
20260904210042 100 161 6.0 13.0 0.00 0.18 0.18 40 1009.7
20260904205536 99 178 8.0 12.0 0.00 0.18 0.18 41 1010.0
20260904205033 98 208 5.0 13.0 0.00 0.18 0.18 42 1010.0
20260904204529 99 145 4.0 15.0 0.00 0.18 0.18 41 1010.0
20260904204025 99 199 4.0 11.0 0.00 0.18 0.18 42 1010.0
20260904203521 99 145 10.0 10.0 0.00 0.18 0.18 41 1010.3
20260904203017 98 133 2.0 10.0 0.00 0.18 0.18 42 1010.1
20260904202513 100 178 4.0 17.0 0.00 0.18 0.18 42 1010.2
20260904202009 98 144 4.0 11.0 0.00 0.18 0.18 43 1010.3
20260904201503 98 160 3.0 8.0 0.00 0.18 0.18 43 1010.2
20260904200959 99 184 5.0 13.0 0.00 0.18 0.18 42 1010.4
20260904200457 99 179 5.0 7.0 0.00 0.18 0.18 42 1010.3
20260904195952 99 213 5.0 9.0 0.00 0.18 0.18 43 1010.5
20260904195450 97 166 3.0 7.0 0.00 0.18 0.18 46 1010.6
20260904194949 96 177 3.0 10.0 0.00 0.18 0.18 47 1010.8
20260904194445 96 209 3.0 8.0 0.00 0.18 0.18 48 1010.8
20260904193940 96 177 4.0 14.0 0.00 0.18 0.18 48 1010.9
20260904193435 98 207 6.0 14.0 0.00 0.18 0.18 46 1011.0
20260904192931 98 266 1.0 3.0 0.00 0.18 0.18 47 1011.0
20260904192425 96 180 5.0 10.0 0.00 0.18 0.18 49 1011.2
20260904191922 95 184 3.0 10.0 0.00 0.18 0.18 50 1011.2
20260904191419 96 237 3.0 7.0 0.00 0.18 0.18 49 1011.4
20260904190915 95 164 2.0 8.0 0.00 0.18 0.18 51 1011.1
20260904190410 96 167 5.0 15.0 0.00 0.18 0.18 49 1011.3
20260904185907 95 209 6.0 9.0 0.00 0.18 0.18 51 1011.5
20260904185402 95 187 9.0 10.0 0.00 0.18 0.18 50 1011.7
20260904184901 96 225 5.0 7.0 0.00 0.18 0.18 51 1011.5
20260904184356 95 234 2.0 13.0 0.00 0.18 0.18 50 1011.4
20260904183852 94 207 4.0 8.0 0.00 0.18 0.18 52 1011.8
20260904183346 95 240 1.0 6.0 0.00 0.18 0.18 55 1012.0
20260904182842 95 198 3.0 8.0 0.00 0.18 0.18 55 1012.1
20260904182337 95 198 3.0 8.0 0.00 0.18 0.18 55 1012.1
20260904181833 94 194 3.0 7.0 0.00 0.18 0.18 55 1011.9
20260904181332 94 209 4.0 7.0 0.00 0.18 0.18 56 1012.3
20260904180828 94 221 5.0 11.0 0.00 0.18 0.18 54 1012.3
20260904180323 94 139 2.0 9.0 0.00 0.18 0.18 56 1012.4
20260904175822 95 211 3.0 7.0 0.00 0.18 0.18 49 1012.5
20260904175320 95 211 3.0 7.0 0.00 0.18 0.18 49 1012.5
20260904174815 95 211 3.0 7.0 0.00 0.18 0.18 49 1012.5
20260904174311 94 153 5.0 9.0 0.00 0.18 0.18 53 1012.4
20260904173807 94 205 5.0 12.0 0.00 0.18 0.18 48 1012.6
20260904173302 92 227 8.0 11.0 0.00 0.18 0.18 51 1012.7
20260904172758 93 211 5.0 15.0 0.00 0.18 0.18 50 1012.7
20260904172257 92 179 6.0 15.0 0.00 0.18 0.18 50 1012.8
20260904171752 92 225 4.0 15.0 0.00 0.18 0.18 52 1012.7
20260904171248 92 201 5.0 13.0 0.00 0.18 0.18 53 1012.9
20260904170744 92 160 4.0 9.0 0.00 0.18 0.18 53 1012.9
20260904170239 93 218 5.0 9.0 0.00 0.18 0.18 55 1012.9
20260904165738 91 235 5.0 11.0 0.00 0.18 0.18 57 1013.1
20260904165232 92 197 4.0 7.0 0.00 0.18 0.18 57 1012.9
20260904164727 92 227 5.0 14.0 0.00 0.18 0.18 60 1012.9
20260904164222 91 254 5.0 9.0 0.00 0.18 0.18 62 1013.0
20260904163718 91 205 3.0 5.0 0.00 0.18 0.18 61 1012.9
20260904163213 90 162 12.0 13.0 0.00 0.18 0.18 62 1013.0
20260904162712 90 172 5.0 12.0 0.00 0.18 0.18 64 1013.0
20260904162207 89 233 4.0 12.0 0.00 0.18 0.18 66 1013.0
20260904161703 89 229 4.0 9.0 0.00 0.18 0.18 68 1013.3
20260904161158 89 190 2.0 11.0 0.00 0.18 0.18 68 1013.2
20260904160654 88 185 5.0 12.0 0.00 0.18 0.18 71 1013.0
20260904160149 88 188 4.0 11.0 0.00 0.18 0.18 71 1013.0
20260904155644 88 217 4.0 10.0 0.00 0.18 0.18 69 1013.0
20260904155143 88 207 11.0 11.0 0.00 0.18 0.18 69 1013.0
20260904154642 87 223 6.0 7.0 0.00 0.18 0.18 71 1012.9
20260904154136 88 195 5.0 12.0 0.00 0.18 0.18 70 1013.0
20260904153632 88 170 5.0 9.0 0.00 0.18 0.18 70 1012.9
20260904153127 87 220 5.0 14.0 0.00 0.18 0.18 71 1012.9
20260904152623 86 204 5.0 11.0 0.00 0.18 0.18 76 1013.0
20260904152119 86 217 3.0 10.0 0.00 0.18 0.18 78 1013.1
20260904151613 86 216 10.0 12.0 0.00 0.18 0.18 76 1012.6
20260904151112 86 209 11.0 13.0 0.00 0.18 0.18 80 1012.9
20260904150608 86 207 6.0 10.0 0.00 0.18 0.18 81 1012.7
20260904145601 84 190 5.0 12.0 0.00 0.18 0.18 84 1012.8
20260904145056 85 217 2.0 8.0 0.00 0.18 0.18 84 1012.7
20260904144552 84 191 6.0 9.0 0.00 0.18 0.18 85 1013.1
20260904144048 85 228 2.0 8.0 0.00 0.18 0.18 85 1012.9
20260904143544 84 207 3.0 9.0 0.00 0.18 0.18 87 1013.0
20260904143040 82 182 6.0 14.0 0.00 0.18 0.18 89 1012.8
20260904142536 82 201 2.0 7.0 0.00 0.18 0.18 91 1013.0
20260904142032 82 161 2.0 5.0 0.00 0.18 0.18 91 1012.8
20260904141526 82 154 3.0 6.0 0.00 0.18 0.18 91 1012.9
20260904141022 81 188 1.0 5.0 0.00 0.18 0.18 92 1012.8
20260904140516 81 186 2.0 4.0 0.00 0.18 0.18 92 1012.7
20260904140016 81 220 1.0 6.0 0.00 0.18 0.18 93 1012.7
20260904135510 80 101 0.0 4.0 0.00 0.18 0.18 93 1012.7
20260904135006 80 159 3.0 8.0 0.00 0.18 0.18 93 1012.5
20260904134501 80 175 4.0 8.0 0.00 0.18 0.18 93 1012.8
20260904133955 80 131 3.0 6.0 0.00 0.18 0.18 93 1012.4
20260904133450 80 179 0.0 4.0 0.00 0.18 0.18 93 1012.8
20260904132946 80 158 3.0 4.0 0.00 0.18 0.18 93 1012.6
20260904132441 80 149 6.0 6.0 0.00 0.18 0.18 94 1012.5
20260904131940 80 145 1.0 3.0 0.00 0.18 0.18 94 1012.3
20260904131435 79 135 0.0 5.0 0.00 0.18 0.18 94 1012.3
20260904130931 79 170 2.0 5.0 0.00 0.18 0.18 95 1012.3
20260904130430 79 120 1.0 8.0 0.00 0.18 0.18 95 1012.1
20260904125924 79 158 3.0 7.0 0.00 0.18 0.18 95 1012.0
20260904125421 79 174 0.0 5.0 0.00 0.18 0.18 95 1012.1
20260904124920 79 178 1.0 4.0 0.00 0.18 0.18 95 1012.1
20260904124417 79 183 1.0 4.0 0.00 0.18 0.18 95 1012.2
20260904123913 79 154 0.0 3.0 0.00 0.18 0.18 95 1011.7
20260904123413 79 166 0.0 3.0 0.00 0.18 0.18 95 1012.2
20260904122908 79 147 1.0 4.0 0.00 0.18 0.18 95 1011.9
20260904122407 79 156 2.0 3.0 0.00 0.18 0.18 95 1011.9
20260904121902 79 168 3.0 4.0 0.00 0.18 0.18 95 1011.8
20260904121359 79 142 2.0 5.0 0.00 0.18 0.18 95 1011.9
20260904120855 79 109 2.0 5.0 0.00 0.18 0.18 95 1011.8
20260904120351 79 146 1.0 4.0 0.00 0.18 0.18 95 1011.2
20260904115846 79 159 0.0 7.0 0.00 0.18 0.18 95 1011.3
20260904115341 79 212 2.0 6.0 0.00 0.18 0.18 95 1011.3
20260904114835 79 143 3.0 7.0 0.00 0.18 0.18 95 1011.5
20260904114330 79 184 1.0 5.0 0.00 0.18 0.18 95 1011.4
20260904113825 79 162 1.0 5.0 0.00 0.18 0.18 95 1011.2
20260904113325 79 169 0.0 5.0 0.00 0.18 0.18 95 1011.3
20260904112819 78 162 3.0 6.0 0.00 0.18 0.18 95 1011.4
20260904112315 78 158 2.0 5.0 0.00 0.18 0.18 95 1011.2
20260904111810 78 159 0.0 5.0 0.00 0.18 0.18 95 1011.0
20260904111306 78 147 0.0 4.0 0.00 0.18 0.18 95 1011.0
20260904110802 78 289 0.0 4.0 0.00 0.18 0.18 95 1011.2
20260904110300 78 173 1.0 4.0 0.00 0.18 0.18 95 1011.2
20260904105756 78 180 3.0 5.0 0.00 0.18 0.18 95 1011.1
20260904105250 78 184 0.0 4.0 0.00 0.18 0.18 95 1011.1
20260904104746 78 222 0.0 3.0 0.00 0.18 0.18 95 1011.2
20260904104241 78 316 0.0 5.0 0.00 0.18 0.18 95 1011.0
20260904103738 78 178 0.0 5.0 0.00 0.18 0.18 95 1011.1
20260904103232 78 227 1.0 6.0 0.00 0.18 0.18 95 1010.9
20260904102728 78 177 5.0 6.0 0.00 0.18 0.18 95 1011.0
20260904102223 78 174 3.0 8.0 0.00 0.18 0.18 95 1011.2
20260904101720 78 189 2.0 6.0 0.00 0.18 0.18 95 1010.9
20260904101215 78 155 5.0 7.0 0.00 0.18 0.18 95 1010.9
20260904100711 78 207 2.0 7.0 0.00 0.18 0.18 95 1011.0
20260904100207 78 185 2.0 8.0 0.00 0.18 0.18 95 1010.8
20260904095706 78 158 3.0 6.0 0.00 0.18 0.18 95 1011.0
20260904095201 78 140 5.0 7.0 0.00 0.18 0.18 95 1010.8
20260904094656 78 171 3.0 7.0 0.00 0.18 0.18 95 1010.8
20260904094151 78 140 5.0 7.0 0.00 0.18 0.18 95 1010.6
20260904093648 78 183 5.0 8.0 0.00 0.18 0.18 95 1010.6
20260904093147 78 152 3.0 7.0 0.00 0.18 0.18 95 1010.6
20260904092643 78 203 3.0 7.0 0.00 0.18 0.18 95 1010.9
20260904092139 78 120 3.0 6.0 0.00 0.18 0.18 95 1010.9
20260904091635 78 157 4.0 6.0 0.00 0.18 0.18 95 1011.0
20260904091135 78 186 2.0 5.0 0.00 0.18 0.18 95 1010.8
20260904090630 78 195 2.0 6.0 0.00 0.18 0.18 95 1010.9
20260904090126 78 209 5.0 7.0 0.00 0.18 0.18 95 1011.0
20260904085621 78 182 5.0 7.0 0.00 0.18 0.18 96 1010.9
20260904085120 78 155 2.0 7.0 0.00 0.18 0.18 96 1010.8
20260904084616 78 174 2.0 8.0 0.00 0.18 0.18 96 1010.8
20260904084112 78 159 2.0 8.0 0.00 0.18 0.18 96 1010.7
20260904083608 78 172 8.0 8.0 0.00 0.18 0.18 96 1010.8
20260904083103 78 191 3.0 5.0 0.00 0.18 0.18 96 1010.8
20260904082558 77 184 2.0 5.0 0.00 0.18 0.18 96 1010.8
20260904082054 77 195 3.0 7.0 0.00 0.18 0.18 96 1010.5
20260904081549 77 176 4.0 7.0 0.00 0.18 0.18 96 1010.8
20260904081044 77 158 5.0 8.0 0.00 0.18 0.18 96 1010.6
20260904080540 77 167 4.0 7.0 0.00 0.18 0.18 96 1010.7
20260904080036 77 149 2.0 6.0 0.00 0.18 0.18 96 1010.8
20260904075532 77 192 4.0 5.0 0.00 0.18 0.18 96 1011.0
20260904075027 77 174 3.0 7.0 0.00 0.18 0.18 96 1010.9
20260904074520 77 161 4.0 8.0 0.02 0.18 0.18 96 1011.0
20260904074015 77 171 3.0 10.0 0.02 0.18 0.18 96 1010.9
20260904073510 78 191 5.0 10.0 0.00 0.18 0.18 96 1010.9
20260904073006 78 174 3.0 7.0 0.00 0.18 0.18 96 1011.1
20260904072502 78 176 3.0 9.0 0.00 0.18 0.18 96 1011.0
20260904071956 78 180 2.0 5.0 0.02 0.18 0.18 96 1011.1
20260904071451 78 174 3.0 6.0 0.14 0.18 0.18 96 1011.2
20260904070946 78 169 1.0 4.0 0.42 0.17 0.17 96 1011.2
20260904070445 78 204 3.0 5.0 0.73 0.15 0.15 95 1011.1
20260904065940 78 195 3.0 8.0 0.33 0.09 0.09 94 1011.3
20260904065436 78 183 3.0 10.0 0.00 0.03 0.03 94 1010.9
20260904064930 78 152 4.0 7.0 0.00 0.03 0.03 93 1011.2
20260904064427 78 172 3.0 8.0 0.00 0.03 0.03 93 1011.2
20260904063922 78 171 3.0 3.0 0.00 0.03 0.03 93 1011.3
20260904063419 78 171 2.0 3.0 0.00 0.03 0.03 94 1011.4
20260904062913 78 38 0.0 3.0 0.02 0.03 0.03 94 1011.5
20260904062409 78 201 1.0 6.0 0.02 0.03 0.03 94 1011.3
20260904061905 78 156 3.0 8.0 0.05 0.03 0.03 93 1011.2
20260904061401 78 163 4.0 9.0 0.02 0.02 0.02 93 1011.2
20260904060857 78 128 6.0 10.0 0.00 0.02 0.02 92 1011.1
20260904060353 78 160 6.0 11.0 0.00 0.02 0.02 92 1011.1
20260904055848 78 196 1.0 10.0 0.00 0.02 0.02 92 1011.3
20260904055343 79 176 5.0 9.0 0.00 0.02 0.02 91 1011.3
20260904054839 78 161 4.0 10.0 0.00 0.02 0.02 92 1011.3
20260904054334 78 157 5.0 9.0 0.00 0.02 0.02 92 1011.2
20260904053829 78 164 5.0 13.0 0.00 0.02 0.02 92 1011.3
20260904053329 78 140 3.0 11.0 0.00 0.02 0.02 92 1011.2
20260904052825 78 142 5.0 10.0 0.02 0.02 0.02 92 1011.0
20260904052321 78 161 2.0 13.0 0.02 0.02 0.02 92 1011.0
20260904051811 78 175 9.0 10.0 0.02 0.02 0.02 92 1011.1
20260904051306 78 166 9.0 11.0 0.07 0.02 0.02 91 1011.1
20260904050801 78 160 5.0 10.0 0.05 0.01 0.01 89 1011.1
20260904050258 80 162 5.0 12.0 0.00 0.00 0.00 85 1011.0
20260904045752 80 157 6.0 11.0 0.00 0.00 0.00 83 1011.1
20260904045247 80 140 4.0 11.0 0.00 0.00 0.00 82 1011.2
20260904044742 80 147 2.0 11.0 0.00 0.00 0.00 82 1011.3
20260904044239 80 85 2.0 9.0 0.00 0.00 0.00 81 1011.4
20260904043735 80 87 3.0 7.0 0.00 0.00 0.00 81 1011.4
20260904043231 80 134 7.0 12.0 0.00 0.00 0.00 81 1011.2
20260904042726 80 146 5.0 10.0 0.00 0.00 0.00 81 1011.2
20260904042223 80 142 14.0 14.0 0.00 0.00 0.00 81 1011.1
20260904041722 80 74 2.0 9.0 0.00 0.00 0.00 80 1011.5
20260904041218 81 155 2.0 7.0 0.00 0.00 0.00 80 1011.3
20260904040714 81 138 7.0 13.0 0.00 0.00 0.00 80 1011.3
20260904040209 81 133 9.0 10.0 0.00 0.00 0.00 79 1011.3
20260904035705 81 148 6.0 13.0 0.00 0.00 0.00 79 1011.4
20260904035201 81 133 4.0 13.0 0.00 0.00 0.00 79 1011.1
20260904034659 81 164 5.0 9.0 0.00 0.00 0.00 79 1011.2
20260904034155 81 84 1.0 13.0 0.00 0.00 0.00 78 1011.2
20260904033651 81 154 5.0 12.0 0.00 0.00 0.00 78 1011.1
20260904033148 81 144 8.0 11.0 0.00 0.00 0.00 78 1011.2
20260904032643 81 159 5.0 10.0 0.00 0.00 0.00 77 1011.1
20260904032142 81 144 4.0 9.0 0.00 0.00 0.00 77 1011.0
20260904031642 81 156 5.0 10.0 0.00 0.00 0.00 77 1011.1
20260904031137 81 153 3.0 7.0 0.00 0.00 0.00 77 1011.0
20260904030634 81 138 3.0 12.0 0.00 0.00 0.00 76 1011.3
20260904030128 82 140 3.0 11.0 0.00 0.00 0.00 76 1011.0
20260904025624 82 146 3.0 7.0 0.00 0.00 0.00 76 1011.0
20260904025119 82 132 4.0 14.0 0.00 0.00 0.00 75 1010.8
20260904024615 82 136 6.0 12.0 0.00 0.00 0.00 75 1010.9
20260904024110 82 143 4.0 8.0 0.00 0.00 0.00 75 1010.6
20260904023606 82 76 3.0 10.0 0.00 0.00 0.00 75 1010.8
20260904023102 82 118 2.0 7.0 0.00 0.00 0.00 74 1010.6
20260904022556 82 142 6.0 8.0 0.00 0.00 0.00 74 1010.7
20260904022053 82 180 3.0 10.0 0.00 0.00 0.00 73 1010.6
20260904021548 82 153 7.0 9.0 0.00 0.00 0.00 73 1010.7
20260904021043 83 140 5.0 8.0 0.00 0.00 0.00 73 1010.2
20260904020538 83 107 2.0 6.0 0.00 0.00 0.00 72 1010.4
20260904020033 83 168 7.0 11.0 0.00 0.00 0.00 72 1010.3
20260904015528 83 168 3.0 12.0 0.00 0.00 0.00 72 1010.0
20260904015026 83 127 4.0 15.0 0.00 0.00 0.00 71 1010.2
20260904014520 83 161 2.0 9.0 0.00 0.00 0.00 71 1010.0
20260904014016 83 143 5.0 8.0 0.00 0.00 0.00 71 1009.9
20260904013512 84 245 0.0 5.0 0.00 0.00 0.00 71 1010.0
20260904013009 84 144 3.0 7.0 0.00 0.00 0.00 70 1009.7
20260904012508 84 162 4.0 15.0 0.00 0.00 0.00 69 1009.7
20260904012002 84 142 9.0 15.0 0.00 0.00 0.00 69 1009.6
20260904011457 84 88 0.0 11.0 0.00 0.00 0.00 68 1009.3
20260904010952 84 148 3.0 10.0 0.00 0.00 0.00 68 1009.4
20260904010449 85 172 5.0 17.0 0.00 0.00 0.00 67 1009.4
20260904005949 85 135 6.0 18.0 0.00 0.00 0.00 66 1009.4
20260904005445 85 145 8.0 15.0 0.00 0.00 0.00 66 1009.5
20260904004939 86 131 7.0 14.0 0.00 0.00 0.00 65 1009.5
20260904004436 86 146 7.0 22.0 0.00 0.00 0.00 64 1009.4
20260904003936 86 127 17.0 17.0 0.00 0.00 0.00 62 1009.4
20260904003432 87 130 6.0 14.0 0.00 0.00 0.00 61 1009.6
20260904002927 87 154 4.0 13.0 0.00 0.00 0.00 62 1009.6
20260904002423 87 124 15.0 15.0 0.00 0.00 0.00 62 1009.4
20260904001922 88 194 2.0 16.0 0.00 0.00 0.00 62 1009.4
20260904001418 88 141 5.0 10.0 0.00 0.00 0.00 62 1009.2
20260904000912 88 139 4.0 16.0 0.00 0.00 0.00 62 1009.5
20260904000412 89 150 15.0 15.0 0.00 0.00 0.00 61 1009.3
20260903235907 89 154 5.0 20.0 0.00 0.00 0.00 61 1009.4
20260903235403 89 135 7.0 17.0 0.00 0.00 0.00 60 1009.3
20260903234902 90 159 12.0 16.0 0.00 0.00 0.00 60 1009.4
20260903234358 90 173 3.0 12.0 0.00 0.00 0.00 62 1009.3
20260903233854 90 139 6.0 17.0 0.00 0.00 0.00 63 1009.1
20260903233350 90 145 19.0 19.0 0.00 0.00 0.00 62 1009.0
20260903232849 91 133 8.0 22.0 0.00 0.00 0.00 62 1008.9
20260903232345 91 158 11.0 19.0 0.00 0.00 0.00 62 1009.0
20260903231844 91 149 11.0 16.0 0.00 0.00 0.00 61 1008.9
20260903231339 91 157 5.0 15.0 0.00 0.00 0.00 61 1008.8
20260903230835 91 159 3.0 16.0 0.00 0.00 0.00 61 1008.9
20260903230330 92 149 6.0 16.0 0.00 0.00 0.00 61 1008.8
20260903225826 91 126 4.0 14.0 0.00 0.00 0.00 62 1008.6
20260903225322 91 143 4.0 17.0 0.00 0.00 0.00 63 1008.7
20260903224818 91 132 6.0 15.0 0.00 0.00 0.00 63 1008.7
20260903224314 91 167 2.0 13.0 0.00 0.00 0.00 63 1008.8
20260903223810 92 165 3.0 11.0 0.00 0.00 0.00 63 1008.8
20260903223308 92 166 3.0 13.0 0.00 0.00 0.00 63 1008.9